軌道要素
Epoch 2004 Dec. 21.0 TT = JDT 2453360.5
T 2004 Dec. 7.82297 TT MPCW
q 0.0469322 (2000.0) P Q
n 0.26072186 Peri. 172.39230 +0.92702386 +0.36503093
a 2.4267093 Node 165.28252 -0.35940409 +0.93021932
e 0.9806601 Incl. 19.76279 -0.10703018 +0.03800566
P 3.78
From 90 observations 1997 May 1-2012 June 30. Nongravitational parameters
A1 = +0.00, A2 = -0.0002.
|